Douglas, WY

11:24 AM MDT on March 23, 2017 (GMT -0600)
Converse County

Weather History for KDGW - November, 2011

Change the Weather History Date:

Saturday, November 19, 2011

  Actual Average Record
Temperature  
Mean Temperature 15 °F 31 °F  
Max Temperature 24 °F 45 °F 70 °F (2007)
Min Temperature 5 °F 18 °F 5 °F (2011)
Degree Days  
Heating Degree Days 50 34  
Month to date heating degree days 649 556  
Since 1 July heating degree days 1335 1423  
Cooling Degree Days 0 0  
Month to date cooling degree days 0 0  
Year to date cooling degree days 641 486  
Moisture  
Dew Point 15 °F    
Average Humidity 80    
Maximum Humidity 92    
Minimum Humidity 67    
Precipitation  
Precipitation T in 0.01 in 0.01 in (2011)
Month to date precipitation 0.22 0.45  
Year to date precipitation 12.89 12.79  
Sea Level Pressure  
Sea Level Pressure 29.80 in    
Wind  
Wind Speed 11 mph (ESE)    
Max Wind Speed 12 mph    
Max Gust Speed 15 mph    
Visibility 8 miles    
Events Snow    
T = Trace of Precipitation, MM = Missing Value Source: NWS Daily Summary

Daily Weather History Graph

Daily Weather History Graph

Search for Another Location

Airport or City:

Trip Planner

Search our weather history database for the weather conditions in past years. The results will help you decide how hot, cold, wet, or windy it might be!

Date:

Astronomy

Nov. 19, 2011 Rise Set
Actual Time 6:58 AM MST 4:35 PM MST
Civil Twilight 6:27 AM MST 5:06 PM MST
Nautical Twilight 5:52 AM MST 5:40 PM MST
Astronomical Twilight 5:19 AM MST 6:14 PM MST
Moon 12:12 AM MST (11/19) 1:01 PM MST (11/19)
Length of Visible Light 10h 38m
Length of Day
9h 37m
Last Quarter, 37% of the Moon is Illuminated
Nov 19
Last Quarter
Nov 24
New
Dec 2
First Quarter
Dec 10
Full
Dec 17
Last Quarter

Hourly Weather History & Observations

Time (MST) Temp. Windchill Dew Point Humidity Pressure Visibility Wind Dir Wind Speed Gust Speed Precip Events Conditions
12:01 AM 23.0 °F 11.1 °F 19.4 °F 86% 29.64 in 1.0 mi ENE 12.7 mph - 0.00 in Snow Light Snow
12:15 AM 23.0 °F 10.6 °F 19.4 °F 86% 29.63 in 0.8 mi East 13.8 mph - 0.00 in Snow Light Snow
12:18 AM 23.0 °F 10.6 °F 19.4 °F 86% 29.62 in 1.0 mi East 13.8 mph - 0.00 in Snow Light Snow
12:29 AM 23.0 °F 10.1 °F 19.4 °F 86% 29.62 in 1.2 mi East 15.0 mph - 0.00 in Snow Light Snow
12:45 AM 23.0 °F 8.7 °F 19.4 °F 86% 29.61 in 0.8 mi ESE 18.4 mph 23.0 mph 0.00 in Snow Light Snow
12:53 AM 23.0 °F 8.7 °F 19.0 °F 85% 29.65 in 1.0 mi ESE 18.4 mph 24.2 mph 0.00 in Snow Light Snow
1:00 AM 23.0 °F 9.2 °F 19.4 °F 86% 29.61 in 1.5 mi ESE 17.3 mph 24.2 mph 0.00 in Snow Light Snow
1:08 AM 23.0 °F 8.3 °F 19.4 °F 86% 29.59 in 1.8 mi ESE 19.6 mph 25.3 mph 0.00 in Snow Light Snow
1:17 AM 23.0 °F 8.3 °F 19.4 °F 86% 29.59 in 2.5 mi ESE 19.6 mph - 0.00 in Snow Light Snow
1:24 AM 23.0 °F 9.6 °F 19.4 °F 86% 29.59 in 6.0 mi ESE 16.1 mph - 0.00 in Snow Light Snow
1:53 AM 23.0 °F 8.7 °F 18.0 °F 81% 29.66 in 10.0 mi ESE 18.4 mph - 0.00 in   Overcast
2:53 AM 21.9 °F 7.8 °F 19.0 °F 89% 29.65 in 10.0 mi SE 17.3 mph 24.2 mph N/A   Overcast
3:53 AM 21.9 °F 7.8 °F 19.0 °F 89% 29.65 in 10.0 mi SE 17.3 mph - N/A   Overcast
4:53 AM 21.9 °F 10.4 °F 18.0 °F 85% 29.70 in 10.0 mi SE 11.5 mph 20.7 mph N/A   Scattered Clouds
5:16 AM 21.2 °F 14.9 °F 17.6 °F 86% 29.62 in 10.0 mi SE 4.6 mph - N/A   Mostly Cloudy
5:25 AM 21.2 °F 12.6 °F 17.6 °F 86% 29.61 in 10.0 mi SE 6.9 mph - N/A   Mostly Cloudy
5:53 AM 21.0 °F 9.3 °F 18.0 °F 88% 29.72 in 10.0 mi ESE 11.5 mph - N/A   Partly Cloudy
6:53 AM 21.0 °F 7.1 °F 18.0 °F 88% 29.75 in 10.0 mi SE 16.1 mph 21.9 mph N/A   Partly Cloudy
7:53 AM 21.9 °F 9.8 °F 19.0 °F 89% 29.76 in 10.0 mi SE 12.7 mph - N/A   Partly Cloudy
8:34 AM 21.2 °F 11.7 °F 19.4 °F 93% 29.69 in 10.0 mi SE 8.1 mph - N/A   Scattered Clouds
8:53 AM 23.0 °F 10.6 °F 19.0 °F 85% 29.79 in 10.0 mi SSE 13.8 mph - N/A   Partly Cloudy
9:21 AM 23.0 °F 14.7 °F 19.4 °F 86% 29.70 in 10.0 mi SE 6.9 mph - N/A   Mostly Cloudy
9:53 AM 24.1 °F - 19.0 °F 81% 29.82 in 10.0 mi Calm Calm - N/A   Clear
10:53 AM 23.0 °F 10.1 °F 17.1 °F 78% 29.86 in 10.0 mi WNW 15.0 mph 21.9 mph N/A   Partly Cloudy
11:53 AM 23.0 °F 10.1 °F 14.0 °F 68% 29.92 in 10.0 mi North 15.0 mph - N/A   Mostly Cloudy
12:32 PM 21.2 °F 6.4 °F 12.2 °F 68% 29.80 in 10.0 mi NNW 18.4 mph - N/A   Partly Cloudy
12:53 PM 21.0 °F 6.6 °F 12.0 °F 68% 29.95 in 10.0 mi NNW 17.3 mph - N/A   Clear
2:53 PM 17.1 °F 7.6 °F 8.1 °F 68% 30.04 in 10.0 mi North 6.9 mph - N/A   Clear
3:53 PM 12.9 °F 2.6 °F 5.0 °F 71% 30.10 in 10.0 mi North 6.9 mph - N/A   Clear
4:53 PM 9.0 °F -0.9 °F 1.9 °F 73% 30.12 in 10.0 mi North 5.8 mph - N/A   Clear
6:53 PM 6.1 °F -4.3 °F -0.0 °F 76% 30.16 in 10.0 mi ESE 5.8 mph - N/A   Clear
7:53 PM 5.0 °F -6.9 °F -0.9 °F 76% 30.18 in 10.0 mi ESE 6.9 mph - N/A   Clear
8:53 PM 7.0 °F -4.5 °F 1.9 °F 80% 30.17 in 10.0 mi SE 6.9 mph - N/A   Mostly Cloudy
10:53 PM 8.1 °F - 1.9 °F 76% 30.16 in 10.0 mi Calm Calm - N/A   Scattered Clouds
11:53 PM 9.0 °F - 3.0 °F 77% 30.16 in 10.0 mi Calm Calm - N/A   Clear